| time (UTC) | temp F | wind direction | speed knots | gust knots | rain 1hr in | rain 24hr in | rain mn in | humidity % | barometer mb |
| 20260505092008 | 59 | 300 | 0.9 | 1.7 | 0.00 | 0.00 | 0.00 | 74 | 1009.5 |
| 20260505091505 | 59 | 297 | 0.0 | 0.9 | 0.00 | 0.00 | 0.00 | 74 | 1009.6 |
| 20260505091003 | 59 | 212 | 1.7 | 2.6 | 0.00 | 0.00 | 0.00 | 74 | 1009.4 |
| 20260505090501 | 59 | 199 | 1.7 | 3.5 | 0.00 | 0.00 | 0.00 | 74 | 1009.5 |
| 20260505085958 | 59 | 284 | 0.9 | 1.7 | 0.00 | 0.00 | 0.00 | 74 | 1009.5 |
| 20260505085456 | 59 | 305 | 0.0 | 0.0 | 0.00 | 0.00 | 0.00 | 74 | 1009.7 |
| 20260505084954 | 59 | 259 | 1.7 | 2.6 | 0.00 | 0.00 | 0.00 | 73 | 1009.6 |
| 20260505084452 | 59 | 294 | 0.9 | 0.9 | 0.00 | 0.00 | 0.00 | 73 | 1009.7 |
| 20260505083949 | 59 | 301 | 0.9 | 0.9 | 0.00 | 0.00 | 0.00 | 73 | 1009.5 |
| 20260505083446 | 59 | 304 | 1.7 | 2.6 | 0.00 | 0.00 | 0.00 | 72 | 1009.7 |
| 20260505082943 | 59 | 306 | 0.0 | 0.0 | 0.00 | 0.00 | 0.00 | 72 | 1009.6 |
| 20260505082438 | 60 | 297 | 2.6 | 3.5 | 0.00 | 0.00 | 0.00 | 72 | 1009.6 |
| 20260505081936 | 60 | 187 | 2.6 | 3.5 | 0.00 | 0.00 | 0.00 | 72 | 1009.4 |
| 20260505081432 | 60 | 241 | 1.7 | 1.7 | 0.00 | 0.00 | 0.00 | 71 | 1009.6 |
| 20260505080929 | 60 | 314 | 0.9 | 1.7 | 0.00 | 0.00 | 0.00 | 72 | 1009.3 |
| 20260505080425 | 60 | 208 | 1.7 | 2.6 | 0.00 | 0.00 | 0.00 | 72 | 1009.7 |
| 20260505075920 | 60 | 297 | 0.9 | 0.9 | 0.00 | 0.00 | 0.00 | 72 | 1009.7 |
| 20260505075418 | 59 | 189 | 1.7 | 3.5 | 0.00 | 0.00 | 0.00 | 72 | 1009.7 |
| 20260505074915 | 59 | 255 | 0.9 | 0.9 | 0.00 | 0.00 | 0.00 | 72 | 1009.7 |
| 20260505074412 | 59 | 283 | 1.7 | 2.6 | 0.00 | 0.00 | 0.00 | 73 | 1009.5 |
| 20260505073909 | 59 | 247 | 2.6 | 3.5 | 0.00 | 0.00 | 0.00 | 73 | 1009.6 |
| 20260505073407 | 59 | 212 | 0.0 | 0.0 | 0.00 | 0.00 | 0.00 | 74 | 1009.5 |
| 20260505072904 | 59 | 166 | 3.5 | 5.2 | 0.00 | 0.00 | 0.00 | 74 | 1009.7 |
| 20260505072400 | 58 | 302 | 0.9 | 1.7 | 0.00 | 0.00 | 0.00 | 75 | 1009.6 |
| 20260505071856 | 57 | 323 | 0.9 | 0.9 | 0.00 | 0.00 | 0.00 | 77 | 1009.4 |
| 20260505071352 | 57 | 298 | 0.0 | 0.0 | 0.00 | 0.00 | 0.00 | 77 | 1009.3 |
| 20260505070851 | 57 | 308 | 0.0 | 0.0 | 0.00 | 0.00 | 0.00 | 78 | 1009.5 |
| 20260505070347 | 57 | 26 | 0.9 | 1.7 | 0.00 | 0.00 | 0.00 | 78 | 1009.4 |
| 20260505065842 | 57 | 318 | 0.0 | 0.9 | 0.00 | 0.00 | 0.00 | 77 | 1009.4 |
| 20260505065339 | 57 | 305 | 0.0 | 0.0 | 0.00 | 0.00 | 0.00 | 78 | 1009.3 |
| 20260505064836 | 57 | 308 | 0.0 | 0.0 | 0.00 | 0.00 | 0.00 | 78 | 1009.6 |
| 20260505064333 | 57 | 312 | 0.0 | 0.0 | 0.00 | 0.00 | 0.00 | 77 | 1009.3 |
| 20260505063832 | 57 | 306 | 0.0 | 0.0 | 0.00 | 0.00 | 0.00 | 77 | 1009.5 |
| 20260505063327 | 57 | 303 | 0.0 | 0.0 | 0.00 | 0.00 | 0.00 | 76 | 1009.4 |
| 20260505062824 | 57 | 305 | 0.0 | 0.0 | 0.00 | 0.00 | 0.00 | 75 | 1009.5 |
| 20260505062322 | 57 | 309 | 0.0 | 0.0 | 0.00 | 0.00 | 0.00 | 75 | 1009.7 |
| 20260505061818 | 58 | 301 | 0.0 | 0.0 | 0.00 | 0.00 | 0.00 | 75 | 1009.5 |
| 20260505061316 | 58 | 316 | 0.9 | 0.9 | 0.00 | 0.00 | 0.00 | 75 | 1009.6 |
| 20260505060814 | 58 | 307 | 0.0 | 0.0 | 0.00 | 0.00 | 0.00 | 74 | 1009.6 |
| 20260505060310 | 58 | 342 | 0.0 | 0.9 | 0.00 | 0.00 | 0.00 | 74 | 1009.6 |
| 20260505055806 | 58 | 310 | 0.9 | 0.9 | 0.00 | 0.00 | 0.00 | 74 | 1009.8 |
| 20260505055303 | 58 | 318 | 0.0 | 0.9 | 0.00 | 0.00 | 0.00 | 73 | 1009.7 |
| 20260505054800 | 58 | 314 | 0.0 | 0.0 | 0.00 | 0.00 | 0.00 | 73 | 1009.7 |
| 20260505054257 | 59 | 324 | 0.9 | 0.9 | 0.00 | 0.00 | 0.00 | 72 | 1009.8 |
| 20260505053755 | 59 | 353 | 0.9 | 1.7 | 0.00 | 0.00 | 0.00 | 71 | 1009.6 |
| 20260505053252 | 59 | 312 | 0.0 | 0.0 | 0.00 | 0.00 | 0.00 | 71 | 1009.7 |
| 20260505052749 | 59 | 307 | 0.0 | 0.0 | 0.00 | 0.00 | 0.00 | 71 | 1009.7 |
| 20260505052246 | 59 | 315 | 0.0 | 0.9 | 0.00 | 0.00 | 0.00 | 70 | 1009.8 |
| 20260505051743 | 59 | 19 | 1.7 | 1.7 | 0.00 | 0.00 | 0.00 | 70 | 1009.8 |
| 20260505051241 | 59 | 283 | 0.9 | 0.9 | 0.00 | 0.00 | 0.00 | 69 | 1009.9 |
| 20260505050738 | 59 | 280 | 1.7 | 1.7 | 0.00 | 0.00 | 0.00 | 69 | 1009.7 |
| 20260505050237 | 59 | 321 | 0.9 | 0.9 | 0.00 | 0.00 | 0.00 | 68 | 1009.9 |
| 20260505041706 | 61 | 301 | 0.9 | 1.7 | 0.00 | 0.00 | 0.00 | 64 | 1009.9 |
| 20260505041204 | 61 | 73 | 1.7 | 2.6 | 0.00 | 0.00 | 0.00 | 65 | 1010.0 |
| 20260505040701 | 61 | 307 | 0.0 | 0.0 | 0.00 | 0.00 | 0.00 | 65 | 1010.1 |
| 20260505040158 | 61 | 319 | 0.9 | 1.7 | 0.00 | 0.00 | 0.00 | 64 | 1010.2 |
| 20260505035654 | 61 | 333 | 0.9 | 1.7 | 0.00 | 0.00 | 0.00 | 64 | 1010.2 |
| 20260505035150 | 61 | 316 | 0.0 | 0.9 | 0.00 | 0.00 | 0.00 | 65 | 1010.0 |
| 20260505034647 | 61 | 290 | 0.9 | 0.9 | 0.00 | 0.00 | 0.00 | 65 | 1010.0 |
| 20260505034144 | 61 | 216 | 3.5 | 7.0 | 0.00 | 0.00 | 0.00 | 64 | 1010.3 |
| 20260505033640 | 61 | 275 | 0.9 | 1.7 | 0.00 | 0.00 | 0.00 | 64 | 1010.2 |
| 20260505033139 | 61 | 124 | 4.3 | 7.0 | 0.00 | 0.00 | 0.00 | 63 | 1010.3 |
| 20260505032637 | 61 | 307 | 1.7 | 3.5 | 0.00 | 0.00 | 0.00 | 63 | 1010.2 |
| 20260505032133 | 61 | 175 | 6.1 | 8.7 | 0.00 | 0.00 | 0.00 | 62 | 1010.3 |
| 20260505031630 | 62 | 322 | 1.7 | 1.7 | 0.00 | 0.00 | 0.00 | 61 | 1010.2 |
| 20260505031126 | 62 | 232 | 1.7 | 1.7 | 0.00 | 0.00 | 0.00 | 61 | 1010.4 |
| 20260505030623 | 62 | 306 | 1.7 | 2.6 | 0.00 | 0.00 | 0.00 | 61 | 1010.4 |
| 20260505030119 | 62 | 141 | 2.6 | 6.1 | 0.00 | 0.00 | 0.00 | 60 | 1010.4 |
| 20260505025614 | 62 | 305 | 5.2 | 7.0 | 0.00 | 0.00 | 0.00 | 59 | 1010.3 |
| 20260505025108 | 62 | 160 | 5.2 | 7.0 | 0.00 | 0.00 | 0.00 | 58 | 1010.3 |
| 20260505024605 | 62 | 172 | 3.5 | 6.1 | 0.00 | 0.00 | 0.00 | 58 | 1010.4 |
| 20260505024103 | 62 | 164 | 4.3 | 6.1 | 0.00 | 0.00 | 0.00 | 57 | 1010.4 |
| 20260505023559 | 63 | 159 | 6.1 | 7.0 | 0.00 | 0.00 | 0.00 | 57 | 1010.5 |
| 20260505023057 | 63 | 39 | 3.5 | 6.1 | 0.00 | 0.00 | 0.00 | 56 | 1010.3 |
| 20260505022554 | 63 | 285 | 4.3 | 6.1 | 0.00 | 0.00 | 0.00 | 56 | 1010.7 |
| 20260505022051 | 63 | 216 | 3.5 | 7.0 | 0.00 | 0.00 | 0.00 | 55 | 1010.5 |
| 20260505021548 | 63 | 80 | 6.1 | 7.0 | 0.00 | 0.00 | 0.00 | 55 | 1010.6 |
| 20260505021045 | 63 | 174 | 4.3 | 7.8 | 0.00 | 0.00 | 0.00 | 55 | 1010.7 |
| 20260505020544 | 64 | 280 | 3.5 | 3.5 | 0.00 | 0.00 | 0.00 | 55 | 1010.4 |
| 20260505020042 | 64 | 4 | 4.3 | 8.7 | 0.00 | 0.00 | 0.00 | 54 | 1010.5 |
| 20260505015538 | 64 | 320 | 6.1 | 9.6 | 0.00 | 0.00 | 0.00 | 54 | 1010.5 |
| 20260505015035 | 64 | 209 | 1.7 | 1.7 | 0.00 | 0.00 | 0.00 | 54 | 1010.5 |
| 20260505014532 | 64 | 314 | 1.7 | 2.6 | 0.00 | 0.00 | 0.00 | 53 | 1010.3 |
| 20260505014030 | 64 | 106 | 7.8 | 9.6 | 0.00 | 0.00 | 0.00 | 53 | 1010.4 |
| 20260505013527 | 64 | 142 | 4.3 | 6.1 | 0.00 | 0.00 | 0.00 | 53 | 1010.4 |
| 20260505013024 | 64 | 162 | 3.5 | 6.1 | 0.00 | 0.00 | 0.00 | 53 | 1010.1 |
| 20260505012522 | 64 | 256 | 3.5 | 7.8 | 0.00 | 0.00 | 0.00 | 53 | 1010.2 |
| 20260505012019 | 64 | 148 | 6.1 | 7.8 | 0.00 | 0.00 | 0.00 | 53 | 1010.2 |
| 20260505011514 | 65 | 258 | 1.7 | 2.6 | 0.00 | 0.00 | 0.00 | 53 | 1010.2 |
| 20260505011012 | 65 | 237 | 4.3 | 7.8 | 0.00 | 0.00 | 0.00 | 53 | 1010.1 |
| 20260505010507 | 65 | 334 | 0.9 | 1.7 | 0.00 | 0.00 | 0.00 | 53 | 1010.0 |
| 20260505010004 | 65 | 216 | 4.3 | 6.1 | 0.00 | 0.00 | 0.00 | 53 | 1009.9 |
| 20260505005500 | 65 | 128 | 6.1 | 7.8 | 0.00 | 0.00 | 0.00 | 53 | 1009.9 |
| 20260505004957 | 65 | 176 | 3.5 | 11.3 | 0.00 | 0.00 | 0.00 | 54 | 1009.8 |
| 20260505004454 | 65 | 260 | 5.2 | 7.8 | 0.00 | 0.00 | 0.00 | 53 | 1009.8 |
| 20260505003951 | 65 | 212 | 2.6 | 3.5 | 0.00 | 0.00 | 0.00 | 54 | 1009.6 |
| 20260505003448 | 65 | 110 | 5.2 | 7.0 | 0.00 | 0.00 | 0.00 | 55 | 1009.7 |
| 20260505002944 | 65 | 35 | 5.2 | 7.0 | 0.00 | 0.00 | 0.00 | 55 | 1009.7 |
| 20260505002441 | 65 | 321 | 0.9 | 2.6 | 0.00 | 0.00 | 0.00 | 56 | 1009.3 |
| 20260505001939 | 65 | 34 | 1.7 | 2.6 | 0.00 | 0.00 | 0.00 | 57 | 1009.2 |
| 20260505001436 | 65 | 260 | 0.9 | 0.9 | 0.00 | 0.00 | 0.00 | 57 | 1009.5 |
| 20260505000933 | 64 | 318 | 0.9 | 1.7 | 0.00 | 0.00 | 0.00 | 58 | 1009.2 |
| 20260505000431 | 64 | 225 | 1.7 | 1.7 | 0.00 | 0.00 | 0.00 | 58 | 1009.4 |
| 20260504235928 | 64 | 216 | 3.5 | 3.5 | 0.00 | 0.00 | 0.00 | 59 | 1009.1 |
| 20260504235425 | 64 | 341 | 0.9 | 0.9 | 0.00 | 0.00 | 0.00 | 60 | 1009.0 |
| 20260504234921 | 64 | 313 | 0.9 | 1.7 | 0.00 | 0.00 | 0.00 | 61 | 1009.0 |
| 20260504234419 | 64 | 348 | 0.9 | 1.7 | 0.00 | 0.00 | 0.00 | 61 | 1009.1 |
| 20260504233915 | 64 | 314 | 0.9 | 1.7 | 0.00 | 0.00 | 0.00 | 61 | 1008.9 |
| 20260504233410 | 64 | 280 | 0.9 | 0.9 | 0.00 | 0.00 | 0.00 | 62 | 1008.9 |
| 20260504232907 | 64 | 325 | 0.9 | 1.7 | 0.00 | 0.00 | 0.00 | 61 | 1008.7 |
| 20260504232404 | 64 | 321 | 1.7 | 1.7 | 0.00 | 0.00 | 0.00 | 62 | 1008.7 |
| 20260504231901 | 64 | 310 | 0.9 | 0.9 | 0.00 | 0.00 | 0.00 | 61 | 1008.7 |
| 20260504231358 | 64 | 40 | 2.6 | 3.5 | 0.00 | 0.00 | 0.00 | 61 | 1008.6 |
| 20260504230854 | 64 | 353 | 0.9 | 0.9 | 0.00 | 0.00 | 0.00 | 60 | 1008.6 |
| 20260504230352 | 64 | 4 | 1.7 | 2.6 | 0.00 | 0.00 | 0.00 | 60 | 1008.4 |
| 20260504225850 | 64 | 39 | 4.3 | 6.1 | 0.00 | 0.00 | 0.00 | 60 | 1008.3 |
| 20260504225346 | 64 | 84 | 1.7 | 2.6 | 0.00 | 0.00 | 0.00 | 60 | 1008.8 |
| 20260504224844 | 64 | 112 | 6.1 | 8.7 | 0.00 | 0.00 | 0.00 | 60 | 1008.5 |
| 20260504224341 | 65 | 39 | 3.5 | 5.2 | 0.00 | 0.00 | 0.00 | 59 | 1008.5 |
| 20260504223837 | 65 | 47 | 3.5 | 3.5 | 0.00 | 0.00 | 0.00 | 58 | 1008.7 |
| 20260504223333 | 65 | 40 | 2.6 | 5.2 | 0.00 | 0.00 | 0.00 | 58 | 1008.4 |
| 20260504222829 | 66 | 36 | 2.6 | 3.5 | 0.00 | 0.00 | 0.00 | 57 | 1008.3 |
| 20260504222327 | 65 | 53 | 3.5 | 5.2 | 0.00 | 0.00 | 0.00 | 57 | 1008.3 |
| 20260504221825 | 65 | 11 | 1.7 | 2.6 | 0.00 | 0.00 | 0.00 | 57 | 1008.6 |
| 20260504221321 | 66 | 310 | 1.7 | 1.7 | 0.00 | 0.00 | 0.00 | 58 | 1008.6 |
| 20260504220819 | 66 | 340 | 1.7 | 1.7 | 0.00 | 0.00 | 0.00 | 56 | 1008.5 |
| 20260504220315 | 66 | 71 | 2.6 | 2.6 | 0.00 | 0.00 | 0.00 | 57 | 1008.7 |
| 20260504215813 | 66 | 20 | 2.6 | 3.5 | 0.00 | 0.00 | 0.00 | 56 | 1008.8 |
| 20260504215309 | 66 | 66 | 3.5 | 3.5 | 0.00 | 0.00 | 0.00 | 56 | 1008.8 |
| 20260504214805 | 66 | 120 | 1.7 | 2.6 | 0.00 | 0.00 | 0.00 | 55 | 1008.7 |
| 20260504214302 | 67 | 69 | 3.5 | 5.2 | 0.00 | 0.00 | 0.00 | 55 | 1008.8 |
| 20260504213758 | 66 | 304 | 1.7 | 2.6 | 0.00 | 0.00 | 0.00 | 54 | 1008.7 |
| 20260504213254 | 67 | 3 | 2.6 | 2.6 | 0.00 | 0.00 | 0.00 | 53 | 1008.9 |
| 20260504212752 | 67 | 298 | 0.9 | 0.9 | 0.00 | 0.00 | 0.00 | 54 | 1009.0 |
| 20260504212248 | 66 | 16 | 3.5 | 3.5 | 0.00 | 0.00 | 0.00 | 54 | 1009.0 |
| 20260504211745 | 68 | 354 | 1.7 | 2.6 | 0.00 | 0.00 | 0.00 | 52 | 1008.8 |
| 20260504211241 | 68 | 51 | 0.9 | 0.9 | 0.00 | 0.00 | 0.00 | 51 | 1009.2 |
| 20260504210739 | 69 | 277 | 3.5 | 5.2 | 0.00 | 0.00 | 0.00 | 50 | 1008.8 |
| 20260504210236 | 69 | 275 | 1.7 | 1.7 | 0.00 | 0.00 | 0.00 | 49 | 1009.0 |
| 20260504205733 | 70 | 323 | 1.7 | 2.6 | 0.00 | 0.00 | 0.00 | 47 | 1008.7 |
| 20260504205231 | 70 | 343 | 1.7 | 2.6 | 0.00 | 0.00 | 0.00 | 48 | 1008.9 |
| 20260504204729 | 70 | 51 | 1.7 | 2.6 | 0.00 | 0.00 | 0.00 | 47 | 1008.7 |
| 20260504204227 | 70 | 51 | 5.2 | 7.0 | 0.00 | 0.00 | 0.00 | 48 | 1008.8 |
| 20260504203726 | 70 | 77 | 3.5 | 6.1 | 0.00 | 0.00 | 0.00 | 47 | 1008.7 |
| 20260504203223 | 71 | 267 | 0.9 | 1.7 | 0.00 | 0.00 | 0.00 | 44 | 1008.8 |
| 20260504202724 | 71 | 82 | 2.6 | 6.1 | 0.00 | 0.00 | 0.00 | 43 | 1008.8 |
| 20260504202221 | 72 | 153 | 4.3 | 8.7 | 0.00 | 0.00 | 0.00 | 39 | 1008.6 |
| 20260504201718 | 73 | 178 | 3.5 | 5.2 | 0.00 | 0.00 | 0.00 | 39 | 1008.8 |
| 20260504201215 | 72 | 287 | 2.6 | 3.5 | 0.00 | 0.00 | 0.00 | 35 | 1008.8 |
| 20260504200713 | 72 | 148 | 5.2 | 7.0 | 0.00 | 0.00 | 0.00 | 35 | 1008.8 |
| 20260504200209 | 72 | 111 | 4.3 | 7.0 | 0.00 | 0.00 | 0.00 | 36 | 1008.8 |
| 20260504195705 | 71 | 150 | 4.3 | 7.0 | 0.00 | 0.00 | 0.00 | 36 | 1009.0 |
| 20260504195201 | 72 | 215 | 5.2 | 7.0 | 0.00 | 0.00 | 0.00 | 35 | 1009.1 |
| 20260504194658 | 71 | 92 | 1.7 | 2.6 | 0.00 | 0.00 | 0.00 | 36 | 1009.0 |
| 20260504194154 | 71 | 112 | 2.6 | 5.2 | 0.00 | 0.00 | 0.00 | 36 | 1008.9 |
| 20260504193651 | 72 | 175 | 5.2 | 7.0 | 0.00 | 0.00 | 0.00 | 35 | 1009.1 |
| 20260504193149 | 72 | 171 | 8.7 | 9.6 | 0.00 | 0.00 | 0.00 | 36 | 1009.2 |
| 20260504192647 | 72 | 167 | 5.2 | 7.0 | 0.00 | 0.00 | 0.00 | 35 | 1009.1 |
| 20260504192144 | 71 | 211 | 5.2 | 9.6 | 0.00 | 0.00 | 0.00 | 36 | 1009.1 |
| 20260504191643 | 72 | 136 | 1.7 | 3.5 | 0.00 | 0.00 | 0.00 | 36 | 1009.4 |
| 20260504191138 | 73 | 189 | 3.5 | 5.2 | 0.00 | 0.00 | 0.00 | 35 | 1009.4 |
| 20260504190635 | 73 | 190 | 3.5 | 3.5 | 0.00 | 0.00 | 0.00 | 34 | 1009.4 |
| 20260504190131 | 71 | 151 | 5.2 | 7.0 | 0.00 | 0.00 | 0.00 | 35 | 1009.4 |
| 20260504185628 | 72 | 166 | 4.3 | 7.8 | 0.00 | 0.00 | 0.00 | 34 | 1009.6 |
| 20260504185125 | 73 | 186 | 5.2 | 7.0 | 0.00 | 0.00 | 0.00 | 35 | 1009.7 |
| 20260504184620 | 72 | 144 | 0.9 | 0.9 | 0.00 | 0.00 | 0.00 | 35 | 1009.8 |
| 20260504184115 | 72 | 217 | 4.3 | 7.0 | 0.00 | 0.00 | 0.00 | 34 | 1009.9 |
| 20260504183613 | 71 | 219 | 1.7 | 2.6 | 0.00 | 0.00 | 0.00 | 34 | 1009.8 |
| 20260504183111 | 71 | 190 | 4.3 | 7.0 | 0.00 | 0.00 | 0.00 | 34 | 1010.0 |
| 20260504182608 | 71 | 213 | 2.6 | 3.5 | 0.00 | 0.00 | 0.00 | 35 | 1010.0 |
| 20260504182105 | 71 | 178 | 6.1 | 8.7 | 0.00 | 0.00 | 0.00 | 35 | 1010.2 |
| 20260504181603 | 71 | 315 | 2.6 | 3.5 | 0.00 | 0.00 | 0.00 | 36 | 1009.9 |
| 20260504181100 | 71 | 244 | 1.7 | 2.6 | 0.00 | 0.00 | 0.00 | 35 | 1010.3 |
| 20260504180559 | 70 | 305 | 1.7 | 1.7 | 0.00 | 0.00 | 0.00 | 35 | 1010.1 |
| 20260504180058 | 70 | 203 | 3.5 | 3.5 | 0.00 | 0.00 | 0.00 | 36 | 1010.3 |
| 20260504175554 | 70 | 146 | 5.2 | 7.0 | 0.00 | 0.00 | 0.00 | 37 | 1010.7 |
| 20260504175051 | 69 | 177 | 2.6 | 3.5 | 0.00 | 0.00 | 0.00 | 38 | 1010.4 |
| 20260504174549 | 69 | 185 | 1.7 | 2.6 | 0.00 | 0.00 | 0.00 | 39 | 1010.5 |
| 20260504174045 | 69 | 152 | 5.2 | 8.7 | 0.00 | 0.00 | 0.00 | 38 | 1010.6 |
| 20260504173542 | 69 | 187 | 7.0 | 9.6 | 0.00 | 0.00 | 0.00 | 38 | 1010.8 |
| 20260504173040 | 69 | 326 | 4.3 | 9.6 | 0.00 | 0.00 | 0.00 | 38 | 1010.6 |
| 20260504172536 | 69 | 191 | 2.6 | 6.1 | 0.00 | 0.00 | 0.00 | 36 | 1010.5 |
| 20260504172033 | 69 | 178 | 4.3 | 7.0 | 0.00 | 0.00 | 0.00 | 36 | 1010.6 |
| 20260504171530 | 70 | 228 | 5.2 | 7.8 | 0.00 | 0.00 | 0.00 | 36 | 1010.7 |
| 20260504171027 | 70 | 201 | 7.8 | 11.3 | 0.00 | 0.00 | 0.00 | 36 | 1010.8 |
| 20260504170522 | 69 | 115 | 7.0 | 9.6 | 0.00 | 0.00 | 0.00 | 36 | 1010.8 |
| 20260504160443 | 68 | 285 | 3.5 | 5.2 | 0.00 | 0.00 | 0.00 | 36 | 1011.7 |
| 20260504150906 | 66 | 128 | 6.1 | 9.6 | 0.00 | 0.00 | 0.00 | 39 | 1012.5 |
| 20260504150403 | 66 | 312 | 1.7 | 3.5 | 0.00 | 0.00 | 0.00 | 40 | 1012.4 |
| 20260504141333 | 66 | 215 | 3.5 | 3.5 | 0.00 | 0.00 | 0.00 | 45 | 1012.5 |
| 20260504140829 | 66 | 123 | 2.6 | 3.5 | 0.00 | 0.00 | 0.00 | 44 | 1012.5 |
| 20260504140325 | 66 | 239 | 2.6 | 5.2 | 0.00 | 0.00 | 0.00 | 43 | 1012.4 |
| 20260504130754 | 62 | 167 | 3.5 | 8.7 | 0.00 | 0.00 | 0.00 | 47 | 1013.1 |
| 20260504130250 | 61 | 283 | 4.3 | 7.0 | 0.00 | 0.00 | 0.00 | 48 | 1013.0 |
| 20260504120214 | 57 | 298 | 4.3 | 6.1 | 0.00 | 0.00 | 0.00 | 56 | 1013.4 |
| 20260504110636 | 51 | 181 | 5.2 | 7.8 | 0.00 | 0.00 | 0.00 | 62 | 1013.3 |
| 20260504110131 | 51 | 307 | 2.6 | 3.5 | 0.00 | 0.00 | 0.00 | 62 | 1013.6 |
| 20260504100551 | 51 | 251 | 0.9 | 1.7 | 0.00 | 0.00 | 0.00 | 53 | 1013.3 |